This is the latest recevied weather packets stored in our database for station/object HG8GL-6. If no packets are shown the sender has not sent any weather packets the latest 1 day(s).
| Time | Temp. | Humidity | Pressure | Rain* | Wind** | Luminosity | Snow |
|---|---|---|---|---|---|---|---|
| 1778026966 | 14.44° C | 55% | 1012 hPa | 0 mm | 0 m/s | - | - |
| 1778026336 | 15° C | 54% | 1012 hPa | 0 mm | 0 m/s | - | - |
| 1778025736 | 15.56° C | 55% | 1012 hPa | 0 mm | 0 m/s | - | - |
| 1778025106 | 15.56° C | 56% | 1012 hPa | 0 mm | 0 m/s | - | - |
| 1778024476 | 15.56° C | 56% | 1012 hPa | 0 mm | 0 m/s | - | - |
| 1778023876 | 15.56° C | 55% | 1012 hPa | 0 mm | 0 m/s | - | - |
| 1778023246 | 15.56° C | 55% | 1012 hPa | 0 mm | 0 m/s | - | - |
| 1778022646 | 15.56° C | 56% | 1012 hPa | 0 mm | 0 m/s | - | - |
| 1778022016 | 15° C | 55% | 1012 hPa | 0 mm | 0 m/s | - | - |
| 1778021386 | 14.44° C | 49% | 1012 hPa | 0 mm | 0 m/s | - | - |
| 1778020756 | 14.44° C | 48% | 1012 hPa | 0 mm | 0 m/s | - | - |
| 1778020126 | 15° C | 47% | 1012 hPa | 0 mm | 0 m/s | - | - |
| 1778019496 | 15.56° C | 46% | 1012 hPa | 0 mm | 0 m/s | - | - |
| 1778018866 | 16.11° C | 45% | 1012 hPa | 0 mm | 0 m/s | - | - |
| 1778018236 | 16.67° C | 44% | 1012 hPa | 0 mm | 0 m/s | - | - |
| 1778017636 | 17.22° C | 44% | 1012 hPa | 0 mm | 0 m/s | - | - |
| 1778016976 | 17.22° C | 44% | 1012 hPa | 0 mm | 0 m/s | - | - |
| 1778016346 | 17.78° C | 44% | 1012 hPa | 0 mm | 0 m/s | - | - |
| 1778015716 | 18.33° C | 43% | 1012 hPa | 0 mm | 0 m/s | - | - |
| 1778015116 | 18.33° C | 43% | 1012 hPa | 0 mm | 0 m/s | - | - |
| 1778014486 | 18.89° C | 42% | 1012 hPa | 0 mm | 0 m/s | - | - |
| 1778013826 | 18.89° C | 39% | 1012 hPa | 0 mm | 0 m/s | - | - |
| 1778013196 | 19.44° C | 38% | 1012 hPa | 0 mm | 0 m/s | - | - |
| 1778012566 | 19.44° C | 36% | 1012 hPa | 0 mm | 0 m/s | - | - |
| 1778011936 | 19.44° C | 35% | 1012 hPa | 0 mm | 0 m/s | - | - |
* Rain latest hour (hover to see other rain measurements)
** Current wind speed in m/s (hover to see current wind gust speed)